Weather History for Benson, United Kingdom

Change the Weather History Date:

Sunday, November 18, 2012

  Actual Average Record
Temperature  
Mean Temperature 37 °F -  
Max Temperature 48 °F 46 °F 57 °F (2003)
Min Temperature 26 °F 36 °F 17 °F (2005)
Degree Days  
Heating Degree Days 28    
Moisture  
Dew Point 32 °F    
Average Humidity 83    
Maximum Humidity 100    
Minimum Humidity 47    
Precipitation  
Precipitation 0.01 in - - ()
Sea Level Pressure  
Sea Level Pressure 29.95 in    
Wind  
Wind Speed 3 mph ()    
Max Wind Speed 8 mph    
Max Gust Speed -    
Visibility 7.2 miles    
Events      
Averages and records for this station are not official NWS values.
T = Trace of Precipitation, MM = Missing Value Source: Averaged Metar Reports

Daily Weather History Graph

Daily Weather History Graph

Search for Another Location

Airport:

Trip Planner

Search our weather history database for the weather conditions in past years. The results will help you decide how hot, cold, wet, or windy it might be!

Date:

Astronomy

Nov. 18, 2012 Rise Set
Actual Time 7:28 AM GMT 4:10 PM GMT
Civil Twilight 6:50 AM GMT 4:47 PM GMT
Nautical Twilight 6:09 AM GMT 5:28 PM GMT
Astronomical Twilight 5:30 AM GMT 6:08 PM GMT
Moon 11:40 AM GMT (11/18) 9:21 PM GMT (11/18)
Length of Visible Light 9h 56m
Length of Day
8h 41m
Waxing Crescent, 28% of the Moon is Illuminated
Nov 18
Waxing Crescent
Nov 20
First Quarter
Nov 28
Full
Dec 6
Last Quarter
Dec 13
New

Hourly Weather History & Observations

Time (GMT) Temp. Windchill Dew Point Humidity Pressure Visibility Wind Dir Wind Speed Gust Speed Precip Events Conditions
12:50 AM 30.2 °F - 28.4 °F 93% 29.89 in 6.2 mi SE 2.3 mph - N/A   Unknown
1:50 AM 30.2 °F - 28.4 °F 93% 29.89 in 6.2 mi ESE 1.2 mph - N/A   Unknown
2:50 AM 31 °F - 30 °F 95% 29.91 in 9 mi NNE 2.3 mph - -  
2:50 AM 32.0 °F - 30.2 °F 93% 29.89 in 6.2 mi NNE 2.3 mph - N/A   Unknown
3:50 AM 33.8 °F 30.8 °F 32.0 °F 93% 29.89 in 6.2 mi WNW 3.5 mph - N/A   Unknown
4:50 AM 26.6 °F - 24.8 °F 93% 29.92 in 6.2 mi East 2.3 mph - N/A   Unknown
5:50 AM 28 °F - 27 °F 94% 29.95 in 6 mi SE 1.2 mph - -  
5:50 AM 28.4 °F - 26.6 °F 93% 29.92 in 6.2 mi SE 1.2 mph - N/A   Unknown
6:50 AM 28.4 °F 24.6 °F 26.6 °F 93% 29.92 in 5.6 mi ESE 3.5 mph - N/A   Unknown
7:50 AM 26.6 °F - 26.6 °F 100% 29.95 in 3.7 mi Calm Calm - N/A   Unknown
8:50 AM 32 °F - 31 °F 96% 29.98 in 3 mi Calm Calm - -  
8:50 AM 32.0 °F - 32.0 °F 100% 29.95 in 2.8 mi Calm Calm - N/A   Unknown
9:50 AM 39.2 °F - 33.8 °F 81% 29.98 in 6.2 mi SSW 1.2 mph - N/A   Unknown
10:50 AM 44.6 °F - 37.4 °F 76% 29.98 in 6.2 mi Calm Calm - N/A   Unknown
11:50 AM 46 °F - 38 °F 63% 29.99 in 13 mi SE 1.2 mph - -  
11:50 AM 46.4 °F - 37.4 °F 71% 29.98 in 6.2 mi SE 1.2 mph - N/A   Unknown
12:50 PM 48.2 °F - 37.4 °F 66% 29.98 in 6.2 mi SSE 2.3 mph - N/A   Unknown
1:50 PM 48.2 °F - 35.6 °F 62% 29.98 in 6.2 mi SSW 4.6 mph - N/A   Unknown
2:50 PM 46 °F - 32 °F 47% 29.98 in 17 mi SSW 5.8 mph - -  
2:50 PM 46.4 °F 43.5 °F 32.0 °F 57% 29.95 in 6.2 mi SSW 5.8 mph - N/A   Unknown
3:50 PM 41.0 °F 39.0 °F 33.8 °F 76% 29.98 in 6.2 mi SSE 3.5 mph - N/A   Unknown
4:50 PM 37.4 °F 34.9 °F 33.8 °F 87% 29.98 in 6.2 mi South 3.5 mph - N/A   Scattered Clouds
5:50 PM 38 °F - 34 °F 78% 30.00 in 13 mi South 4.6 mph - -   Mostly Cloudy
5:50 PM 37.4 °F 33.8 °F 33.8 °F 87% 29.98 in 6.2 mi South 4.6 mph - N/A   Mostly Cloudy
6:50 PM 37.4 °F 32.1 °F 33.8 °F 87% 29.98 in 6.2 mi SSE 6.9 mph - N/A   Overcast
7:50 PM 39.2 °F 35.0 °F 33.8 °F 81% 29.98 in 6.2 mi SSE 5.8 mph - N/A   Overcast
8:50 PM 37 °F - 32 °F 77% 29.98 in 13 mi SSE 6.9 mph - -   Scattered Clouds
8:50 PM 37.4 °F 32.1 °F 32.0 °F 81% 29.95 in 6.2 mi SSE 6.9 mph - N/A   Partly Cloudy
9:50 PM 37.4 °F 32.8 °F 32.0 °F 81% 29.95 in 6.2 mi South 5.8 mph - N/A   Scattered Clouds
10:50 PM 35.6 °F 29.2 °F 32.0 °F 87% 29.95 in 6.2 mi South 8.1 mph - N/A   Scattered Clouds
11:50 PM 36 °F - 33 °F 85% 29.96 in 14 mi SSE 5.8 mph - -   Scattered Clouds
11:50 PM 37.4 °F 32.8 °F 33.8 °F 87% 29.95 in 6.2 mi SSE 5.8 mph - N/A   Partly Cloudy